Regional Weather Roundup
Issued by NWS

Home | Current Version | Previous Version | Text Only | Print | Product List | Glossary On
Versions: 1 2 3 4 5 6 7 8 9 10 11 12 13 14 15 16 17 18 19 20 21 22 23 24 25 26 27 28 29 30 31 32 33 34 35 36 37 38 39 40 41 42 43 44 45 46 47 48 49 50
541
ASUS44 KLIX 291605
RWRLA
LOUISIANA WEATHER ROUNDUP
NATIONAL WEATHER SERVICE NEW ORLEANS LA
1100 AM CDT TUE JUL 29 2014

NOTE: "FAIR" INDICATES FEW OR NO CLOUDS BELOW 12,000 FEET WITH NO
      SIGNIFICANT WEATHER AND/OR OBSTRUCTIONS TO VISIBILITY.
      SKY/WX - SKY CONDITION AND SIGNIFICANT WEATHER.
      TMP - AIR TEMPERATURE.    DP   - DEWPOINT TEMPERATURE.
      RH  - RELATIVE HUMIDITY.  PRES - PRESSURE.
      HX  - HEAT INDEX.         WCI  - WIND CHILL INDEX.

*  THESE STATIONS ARE NOT NWS OR FAA STATIONS AND ARE NOT UNDER
   NWS QUALITY CONTROL.

LAZ040-048-061>063-065-066-069-291700-
SOUTHEAST LOUISIANA

CITY           SKY/WX    TMP DP  RH WIND       PRES   REMARKS
N.O. AUDUBON   NOT AVBL
N.O. INTL ARPT CLOUDY    85  69  58 NE9       30.08R
N.O. LAKEFRONT CLOUDY    82  68  62 NE8       30.09R
N.O. DOWNTOWN* FAIR      84  63  48 NE3       30.08R
SLIDELL        PTSUNNY   83  67  58 NE8       30.08R
BATON ROUGE    MOSUNNY   84  66  54 VRB5      30.10R
BOOTHVILLE     PTSUNNY   84  71  65 VRB3      30.08R
BELLE CHASSE   CLOUDY    85  66  53 NE6       30.07R
BOGALUSA*      FAIR      84  66  53 NE5       30.10S
GALLIANO*      NOT AVBL
NEW ROADS*     FAIR      82  67  61 MISG      30.11R
GONZALES*      PTSUNNY   80  71  73 NE3       30.09R
HAMMOND*       PTSUNNY   86  64  48 CALM      30.11R
HOUMA*         NOT AVBL
PORT FOURCHON* PTSUNNY   84  73  70 NE9       30.08S

$$

LAZ041-044-053-054-291700-
SOUTHWEST LOUISIANA

CITY           SKY/WX    TMP DP  RH WIND       PRES   REMARKS
LAKE CHARLES   CLOUDY    86  70  58 NE8       30.10R
LAFAYETTE      PTSUNNY   83  71  67 VRB5      30.10R
PATTERSON      PTSUNNY   84  72  65 CALM      30.12S
SALT POINT       N/A     85  76  74 VRB3      30.07S
NEW IBERIA     PTSUNNY   84  70  62 N6        30.10R
CHENAULT AIRPK NOT AVBL

$$

LAZ027-028-291700-
CENTRAL LOUISIANA

CITY           SKY/WX    TMP DP  RH WIND       PRES   REMARKS
FORT POLK      PTSUNNY   82  67  60 VRB3      30.12R
ALEXANDRIA INT PTSUNNY   86  65  49 NE7       30.10R
ALEXANDRIA     MOSUNNY   86  66  51 VRB5      30.11S

$$

LAZ001-002-291700-
NORTHWEST LOUISIANA

CITY           SKY/WX    TMP DP  RH WIND       PRES   REMARKS
SHREVEPORT     MOSUNNY   86  67  52 CALM      30.12S
BARKSDALE AFB  SUNNY     84  67  56 VRB3      30.12S
DTN SHREVEPORT SUNNY     82  66  58 CALM      30.12S

$$

LAZ014-016-291700-
NORTHEAST LOUISIANA

CITY           SKY/WX    TMP DP  RH WIND       PRES   REMARKS
MONROE         SUNNY     84  67  56 N8        30.11F
TALLULAH       SUNNY     85  66  53 NW7       30.10S

$$




USA.gov is the U.S. government's official web portal to all federal, state and local government web resources and services.